TimeAKST,TemperatureF,Dew PointF,Humidity,Sea Level PressureIn,VisibilityMPH,Wind Direction,Wind SpeedMPH,Gust SpeedMPH,PrecipitationIn,Events,Conditions,WindDirDegrees,DateUTC
12:14 AM,37.4,35.6,93,29.45,10.0,ESE,12.7,24.2,N/A,,Overcast,110,2013-01-26 09:14:00
12:54 AM,37.9,36.0,93,29.44,10.0,ESE,13.8,27.6,N/A,,Overcast,120,2013-01-26 09:54:00
1:54 AM,37.9,36.0,93,29.46,10.0,ESE,11.5,24.2,N/A,,Overcast,120,2013-01-26 10:54:00
2:54 AM,37.0,36.0,96,29.44,10.0,ESE,16.1,29.9,N/A,,Overcast,120,2013-01-26 11:54:00
3:37 AM,37.4,35.6,93,29.43,10.0,ESE,13.8,27.6,N/A,,Overcast,110,2013-01-26 12:37:00
3:54 AM,37.9,36.0,93,29.43,10.0,ESE,11.5,21.9,N/A,,Overcast,120,2013-01-26 12:54:00
4:02 AM,37.4,35.6,93,29.42,10.0,ESE,12.7,24.2,N/A,,Overcast,120,2013-01-26 13:02:00
4:54 AM,37.9,36.0,93,29.43,10.0,ESE,17.3,32.2,N/A,,Overcast,120,2013-01-26 13:54:00
5:01 AM,37.4,35.6,93,29.42,10.0,ESE,18.4,33.4,N/A,,Overcast,110,2013-01-26 14:01:00
5:16 AM,37.4,35.6,93,29.42,10.0,East,15.0,29.9,N/A,,Overcast,100,2013-01-26 14:16:00
5:54 AM,37.9,36.0,93,29.43,10.0,East,12.7,23.0,N/A,,Overcast,90,2013-01-26 14:54:00
6:11 AM,37.4,35.6,93,29.41,10.0,East,13.8,21.9,0.00,Rain,Light Rain,100,2013-01-26 15:11:00
6:16 AM,37.4,35.6,93,29.41,10.0,East,15.0,24.2,0.00,Rain,Light Rain,100,2013-01-26 15:16:00
6:25 AM,37.4,35.6,93,29.41,10.0,ESE,16.1,26.5,0.00,Rain,Light Rain,110,2013-01-26 15:25:00
6:33 AM,37.4,35.6,93,29.41,10.0,ESE,11.5,26.5,0.00,Rain,Light Rain,110,2013-01-26 15:33:00
6:40 AM,37.4,35.6,93,29.40,10.0,East,13.8,21.9,0.00,Rain,Light Rain,100,2013-01-26 15:40:00
6:54 AM,37.9,36.0,93,29.41,10.0,East,15.0,25.3,0.00,Rain,Light Rain,100,2013-01-26 15:54:00
7:54 AM,37.9,36.0,93,29.41,10.0,ESE,13.8,26.5,0.00,Rain,Light Rain,110,2013-01-26 16:54:00
8:51 AM,37.4,35.6,93,29.40,10.0,ESE,15.0,27.6,0.01,Rain,Light Rain,110,2013-01-26 17:51:00
8:54 AM,37.9,35.1,89,29.41,10.0,ESE,16.1,27.6,0.01,Rain,Light Rain,110,2013-01-26 17:54:00
9:12 AM,37.4,35.6,93,29.40,10.0,ESE,17.3,28.8,0.00,Rain,Light Rain,110,2013-01-26 18:12:00
9:24 AM,37.4,35.6,93,29.40,10.0,ESE,16.1,29.9,0.00,Rain,Light Rain,110,2013-01-26 18:24:00
9:54 AM,37.9,35.1,89,29.42,10.0,ESE,16.1,26.5,0.00,Rain,Light Rain,110,2013-01-26 18:54:00
10:20 AM,37.4,35.6,93,29.40,9.0,ESE,17.3,32.2,0.01,Rain,Light Rain,110,2013-01-26 19:20:00
10:43 AM,37.4,35.6,93,29.40,9.0,ESE,15.0,27.6,0.01,Rain,Light Rain,120,2013-01-26 19:43:00
10:54 AM,37.9,35.1,89,29.42,8.0,ESE,18.4,28.8,0.01,Rain,Light Rain,120,2013-01-26 19:54:00
11:54 AM,37.9,35.1,89,29.41,7.0,ESE,18.4,31.1,0.01,Rain,Light Rain,110,2013-01-26 20:54:00
11:58 AM,37.4,35.6,93,29.40,8.0,ESE,17.3,31.1,0.00,Rain,Light Rain,110,2013-01-26 20:58:00
12:54 PM,37.0,34.0,89,29.42,10.0,ESE,15.0,32.2,0.01,Rain,Light Rain,120,2013-01-26 21:54:00
1:34 PM,26.6,21.2,80,29.43,9.0,WNW,13.8,-,0.00,Snow,Light Snow,300,2013-01-26 22:34:00
1:54 PM,24.1,19.9,84,29.46,4.0,WNW,20.7,-,0.00,Snow,Light Snow,290,2013-01-26 22:54:00
2:03 PM,24.8,19.4,80,29.46,1.8,WNW,20.7,-,0.00,Snow,Light Snow,290,2013-01-26 23:03:00
2:22 PM,21.2,19.4,93,29.47,2.0,WNW,19.6,-,0.00,Snow,Light Snow,290,2013-01-26 23:22:00
2:39 PM,23.0,19.4,86,29.48,3.0,WNW,23.0,27.6,0.00,Snow,Light Snow,290,2013-01-26 23:39:00
2:46 PM,23.0,17.6,80,29.48,2.5,WNW,20.7,-,0.00,Snow,Light Snow,300,2013-01-26 23:46:00
2:52 PM,21.2,17.6,86,29.48,1.8,NW,19.6,-,0.00,Snow,Light Snow,310,2013-01-26 23:52:00
2:54 PM,23.0,18.0,81,29.49,1.5,WNW,21.9,27.6,0.00,Snow,Light Snow,300,2013-01-26 23:54:00
3:13 PM,21.2,15.8,80,29.49,2.5,WNW,20.7,29.9,0.00,Snow,Light Snow,300,2013-01-27 00:13:00
3:29 PM,21.2,15.8,80,29.50,3.0,WNW,19.6,27.6,0.00,Snow,Light Snow,300,2013-01-27 00:29:00
3:54 PM,19.9,15.1,81,29.51,8.0,WNW,21.9,28.8,0.00,Snow,Light Snow,300,2013-01-27 00:54:00
4:45 PM,19.4,12.2,74,29.53,8.0,WNW,21.9,26.5,0.00,Snow,Light Snow,290,2013-01-27 01:45:00
4:54 PM,19.0,12.9,77,29.54,5.0,WNW,20.7,-,0.00,Snow,Light Snow,290,2013-01-27 01:54:00
5:08 PM,17.6,10.4,73,29.54,2.5,WNW,18.4,28.8,0.00,Snow,Light Snow,300,2013-01-27 02:08:00
5:32 PM,17.6,10.4,73,29.56,1.8,WNW,18.4,25.3,0.00,Snow,Light Snow,300,2013-01-27 02:32:00
5:41 PM,17.6,10.4,73,29.56,2.0,WNW,17.3,26.5,0.00,Snow,Light Snow,300,2013-01-27 02:41:00
5:54 PM,17.1,10.0,74,29.58,2.5,WNW,18.4,-,0.00,Snow,Light Snow,300,2013-01-27 02:54:00
6:35 PM,15.8,10.4,79,29.58,1.5,WNW,18.4,25.3,0.00,Snow,Light Snow,300,2013-01-27 03:35:00
6:54 PM,15.1,9.0,77,29.60,1.8,WNW,20.7,28.8,0.00,Snow,Light Snow,300,2013-01-27 03:54:00
7:01 PM,14.0,8.6,79,29.59,2.0,NW,18.4,25.3,0.00,Snow,Light Snow,310,2013-01-27 04:01:00
7:28 PM,14.0,8.6,79,29.59,3.0,WNW,21.9,31.1,0.00,Snow,Light Snow,300,2013-01-27 04:28:00
7:54 PM,12.9,8.1,81,29.61,5.0,WNW,25.3,31.1,0.00,Snow,Light Snow,300,2013-01-27 04:54:00
8:47 PM,12.2,8.6,85,29.61,2.5,WNW,24.2,31.1,0.00,Snow,Light Snow,300,2013-01-27 05:47:00
8:52 PM,12.2,6.8,79,29.61,3.0,WNW,23.0,31.1,0.00,Snow,Light Snow,300,2013-01-27 05:52:00
8:54 PM,12.9,7.0,77,29.62,3.0,WNW,21.9,31.1,0.00,Snow,Light Snow,300,2013-01-27 05:54:00
9:01 PM,12.2,6.8,79,29.62,4.0,WNW,21.9,32.2,0.00,Snow,Light Snow,290,2013-01-27 06:01:00
9:09 PM,12.2,6.8,79,29.63,5.0,WNW,19.6,32.2,0.00,Snow,Light Snow,300,2013-01-27 06:09:00
9:49 PM,12.2,5.0,73,29.64,3.0,WNW,21.9,31.1,0.00,Snow,Light Snow,300,2013-01-27 06:49:00
9:54 PM,12.0,5.0,73,29.65,3.0,WNW,20.7,31.1,0.00,Snow,Light Snow,300,2013-01-27 06:54:00
10:54 PM,10.9,3.9,73,29.66,4.0,WNW,17.3,25.3,0.00,Snow,Light Snow,300,2013-01-27 07:54:00
11:03 PM,12.2,3.2,67,29.66,5.0,WNW,17.3,26.5,0.00,Snow,Light Snow,300,2013-01-27 08:03:00
11:54 PM,10.9,3.9,73,29.68,4.0,NW,16.1,24.2,0.00,Snow,Light Snow,310,2013-01-27 08:54:00